Theta_e
281 281 281 282 283 284 285 285 286 288 291 292 292 292 292 293 294 295 296 296 296 297 297 298 299 300 301 302 306 314 313 313 313 314 312 311 311 310 310 309 308 307
281 282 282 281 281 281 282 284 286 289 290 292 293 293 293 293 294 295 295 295 295 296 296 297 298 299 300 301 303 310 312 312 312 312 311 311 311 311 310 309 308 306
281 280 279 279 279 280 281 282 282 283 287 292 293 293 293 293 293 294 295 295 295 295 295 296 296 297 299 300 302 306 312 311 311 311 310 310 311 310 310 309 308 305
279 279 278 278 279 279 280 280 281 282 284 287 292 293 293 293 292 293 294 293 293 293 293 294 295 296 298 300 301 304 310 311 311 311 309 309 309 310 310 309 307 306
278 278 278 278 278 279 279 278 279 281 283 284 286 291 292 291 290 291 292 292 292 292 293 293 294 295 296 298 300 303 308 310 311 310 309 309 309 309 309 308 307 305
277 277 277 276 276 276 277 277 278 279 282 283 285 287 291 292 292 291 291 291 291 292 292 292 293 294 295 296 298 301 306 309 310 309 309 308 308 308 308 307 306 304
275 275 276 276 275 275 276 276 277 278 280 283 284 285 287 291 292 291 291 291 291 291 291 291 292 292 294 295 296 299 304 309 309 309 308 308 307 306 306 306 305 304
274 274 274 274 274 274 275 276 277 278 279 281 282 285 287 289 289 290 290 290 290 291 291 291 291 292 293 294 295 297 300 308 309 308 308 307 307 305 305 306 305 304
273 273 273 273 273 273 274 275 276 277 278 278 279 281 285 287 290 291 290 290 290 290 290 290 291 291 292 293 294 296 299 306 308 308 307 306 306 305 305 305 304 303
272 272 272 272 272 273 273 274 276 276 277 278 279 280 280 282 283 287 291 290 289 289 289 289 290 290 291 292 293 295 298 303 308 307 307 307 307 306 305 305 304 302
271 271 271 271 272 272 273 274 274 275 276 277 278 278 279 280 282 285 289 290 289 289 289 289 289 290 290 290 292 293 296 301 307 307 307 307 307 306 303 305 304 303
270 271 271 271 271 272 272 273 274 275 276 276 277 277 278 279 280 283 286 289 289 289 289 289 289 289 289 290 291 292 294 298 305 307 307 307 306 306 305 305 304 304
269 270 270 270 270 271 272 273 273 274 275 275 276 276 277 278 279 281 283 286 289 289 288 288 289 289 289 289 290 291 293 296 303 307 307 306 306 306 305 306 305 304
269 269 270 270 270 271 271 271 272 273 274 275 276 276 276 277 278 278 280 283 287 288 288 288 288 288 288 289 289 291 293 295 301 306 306 306 305 306 305 305 306 305
268 269 269 269 269 270 270 271 272 272 274 275 275 275 276 276 277 278 279 281 285 288 288 288 288 288 288 289 289 290 292 295 299 305 305 305 305 305 305 305 305 305
268 268 268 269 269 269 270 270 271 272 273 274 274 275 275 276 276 277 278 279 281 285 287 287 288 288 288 289 290 289 290 292 295 302 305 305 304 303 303 304 305 305
267 267 268 268 268 269 269 270 271 272 273 274 275 275 275 275 276 276 277 278 279 282 285 286 287 288 289 290 290 291 290 291 292 298 304 304 303 303 302 302 304 304
267 267 267 267 268 268 269 270 270 270 271 273 274 274 275 276 276 276 276 277 278 280 282 285 286 288 290 290 290 291 290 290 292 295 303 304 303 303 302 302 302 303
266 266 266 267 267 268 269 269 270 270 272 272 273 274 275 275 275 276 276 277 278 279 281 283 285 288 289 290 290 290 291 291 291 293 300 303 303 303 302 302 302 302
266 265 265 266 267 268 268 269 269 269 270 270 271 272 273 275 275 276 276 276 277 279 281 282 284 287 289 290 290 290 291 291 291 292 298 302 303 303 303 303 302 301
265 265 265 265 266 266 267 267 267 268 268 269 270 271 273 275 276 276 277 277 278 279 281 283 285 287 289 290 290 290 291 291 291 292 297 301 303 303 303 303 302 303
264 264 264 265 265 265 265 266 266 267 267 269 270 271 273 276 277 277 277 277 278 280 281 282 284 287 288 290 290 291 291 290 290 292 295 300 301 301 302 303 303 302
264 264 264 264 264 265 265 265 266 266 267 268 269 270 271 274 277 277 278 278 279 281 281 282 284 287 289 290 290 290 290 289 289 291 295 299 300 301 302 302 302 301
264 263 263 263 264 264 264 265 266 267 268 269 269 269 270 272 275 277 278 279 279 281 282 283 284 286 288 289 290 290 290 289 289 291 294 297 299 300 301 301 300 296
263 263 263 263 263 264 264 265 265 266 267 268 268 269 271 273 276 277 279 281 282 283 284 284 284 286 288 289 290 291 290 288 289 291 294 295 298 297 299 300 299 296
263 263 263 263 263 264 265 265 266 266 267 267 268 269 270 273 277 278 278 279 280 282 284 285 285 286 287 289 290 290 291 289 290 292 294 295 296 297 297 297 297 297
Wind_Speed
11 13 15 15 16 18 18 17 16 18 17 14 12 9 8 7 5 6 7 6 6 7 8 9 9 9 11 14 18 17 14 17 17 17 17 18 16 18 20 18 17 16
18 14 11 14 15 15 18 21 22 19 19 16 13 11 7 6 5 6 7 7 7 7 7 9 9 10 11 12 16 19 15 16 17 13 17 21 19 20 20 21 19 13
17 12 15 18 17 19 19 15 15 18 21 19 13 9 7 6 6 5 7 7 7 7 7 7 9 10 11 12 15 17 16 17 18 17 15 19 17 18 18 18 16 17
15 17 17 17 16 17 17 18 17 15 16 19 18 11 7 6 6 6 7 7 7 7 6 6 9 10 11 12 13 15 17 16 17 18 17 15 15 18 18 16 16 15
19 18 13 14 15 16 16 18 19 18 19 17 19 19 9 7 7 6 7 7 6 7 6 6 8 10 11 11 12 14 16 15 16 17 17 18 15 16 16 18 18 17
16 16 15 14 15 17 18 19 19 19 19 19 18 17 17 8 7 8 8 7 6 7 7 6 7 9 10 11 12 13 15 14 16 18 18 18 17 15 14 15 18 19
19 19 20 14 16 17 18 17 18 18 18 16 16 16 16 14 10 9 8 8 6 6 7 7 7 8 9 10 11 14 15 17 16 18 19 17 16 16 15 18 18 19
19 17 17 17 18 18 18 17 16 16 17 18 18 17 14 16 13 9 7 7 6 6 6 6 7 8 9 9 11 13 17 16 16 19 19 18 17 16 17 17 17 18
18 18 16 17 18 16 17 17 16 16 16 17 17 17 16 14 14 11 9 7 7 6 6 6 6 7 8 10 11 13 16 17 15 19 20 19 19 19 18 18 18 17
19 18 18 18 17 15 17 17 17 16 14 16 17 15 16 15 15 17 14 8 7 6 6 6 6 6 8 9 11 13 15 17 16 17 19 19 20 20 19 18 20 19
20 17 17 17 18 16 18 17 18 16 14 15 15 16 16 16 15 14 15 10 8 7 6 6 5 7 9 10 11 11 14 17 16 18 18 19 19 20 20 20 20 20
20 18 17 18 18 18 18 17 17 16 16 14 13 15 16 16 16 14 14 14 9 7 6 6 5 6 8 10 11 12 13 16 15 16 19 19 18 19 20 20 21 21
21 20 18 18 18 18 17 16 17 17 16 16 15 15 14 14 16 16 14 14 13 8 7 6 6 6 7 9 11 12 14 15 16 15 17 18 19 19 19 20 21 20
20 19 19 18 17 18 17 17 16 16 16 15 14 15 13 12 14 16 17 14 15 10 7 6 6 7 6 8 10 12 13 14 16 16 16 17 18 19 19 20 20 21
20 19 18 18 18 18 18 18 18 18 17 15 14 13 12 11 12 13 18 18 16 12 8 7 7 8 6 7 9 13 13 14 16 16 18 18 18 18 19 19 19 20
20 20 20 20 18 19 19 18 17 18 16 18 17 16 15 13 13 15 17 18 17 15 11 9 9 7 8 13 15 13 13 13 15 15 17 18 19 18 18 19 20 19
21 21 21 21 20 19 17 15 15 15 16 16 15 15 15 14 13 15 16 16 18 17 14 12 10 9 13 14 17 21 16 13 13 15 15 18 18 20 18 18 19 20
23 21 22 21 20 18 16 16 15 16 16 17 15 14 13 12 14 12 14 16 16 17 16 13 11 12 16 16 17 20 20 15 13 14 14 16 17 19 18 18 18 17
20 21 21 20 19 17 16 14 16 15 14 14 15 15 16 15 14 12 13 13 15 17 16 15 13 15 17 17 17 19 22 20 12 14 15 16 18 18 18 17 17 16
21 21 22 21 18 16 16 16 16 15 15 12 14 15 18 16 14 14 13 15 15 17 16 16 15 14 18 17 17 19 21 19 14 15 16 16 19 19 18 18 18 17
19 20 21 20 19 17 16 16 16 16 15 14 14 16 17 15 14 12 12 13 15 16 16 15 13 18 18 18 18 19 20 19 14 15 15 14 15 17 18 19 18 17
23 22 21 21 20 19 18 19 18 18 17 16 16 14 16 16 13 12 14 15 17 16 15 16 14 19 20 18 19 18 20 14 12 14 15 14 15 16 16 16 17 17
20 21 22 22 21 21 19 17 17 19 18 14 15 15 16 16 13 12 12 14 16 15 16 15 14 15 17 19 19 20 15 12 12 12 13 14 14 16 17 16 16 18
20 20 20 21 20 20 21 19 17 16 15 12 13 14 14 15 14 13 13 13 15 16 15 14 13 14 18 18 19 20 17 13 11 11 12 12 13 15 14 14 17 24
22 22 21 21 21 20 19 20 18 16 15 14 14 14 14 14 16 15 13 11 13 15 19 19 15 14 18 19 19 19 16 11 11 11 12 12 12 13 14 14 15 19
19 21 22 21 22 21 19 17 15 15 15 14 15 13 14 13 14 13 13 13 13 15 14 15 15 13 13 18 18 20 22 13 10 12 12 13 12 13 13 12 14 14
Wind_Direction
292 305 298 302 312 312 301 287 281 282 282 278 272 264 236 226 218 244 258 263 273 279 290 291 291 288 290 288 280 244 200 192 190 184 185 181 183 180 182 178 175 179
305 304 310 317 313 311 311 316 311 300 287 276 269 262 236 214 219 229 250 261 270 275 288 294 293 291 285 281 281 255 212 191 191 191 185 186 180 179 183 178 176 169
307 317 322 316 310 307 310 307 305 308 308 295 272 260 235 209 222 221 240 252 265 275 286 291 291 288 284 279 280 267 226 192 189 185 185 187 180 178 178 175 174 172
314 315 308 304 305 307 309 307 307 307 305 310 304 276 238 217 214 222 239 242 257 269 275 287 288 288 286 283 282 276 240 201 186 181 182 186 185 178 174 173 174 172
312 305 306 311 311 308 307 305 307 305 305 304 307 302 264 229 217 220 232 235 244 260 270 280 287 287 287 287 285 279 254 211 188 181 181 182 184 183 176 173 172 171
310 316 314 315 317 312 306 305 305 305 304 303 302 305 299 252 225 219 223 232 236 249 263 274 284 287 289 291 293 283 265 226 189 179 180 181 182 181 172 173 173 170
313 310 305 312 313 306 302 301 302 303 301 297 298 297 303 292 255 226 220 226 232 243 258 270 282 290 292 294 292 288 276 235 192 180 177 179 175 177 175 173 174 173
309 310 311 313 308 302 297 297 297 299 304 307 307 305 303 301 282 261 235 220 224 238 254 265 276 286 291 291 288 288 282 247 199 180 180 174 174 177 174 175 174 173
311 306 303 304 303 301 297 296 296 296 301 302 301 301 305 312 307 282 255 227 218 232 246 261 273 283 288 289 288 285 285 259 210 183 179 175 173 177 178 173 172 173
307 307 307 304 300 299 299 300 298 296 298 298 301 304 303 304 303 302 276 241 223 229 241 253 274 282 289 289 288 291 286 271 222 190 180 178 177 175 176 175 174 173
305 303 302 303 302 300 299 300 298 296 295 294 298 300 303 301 301 302 294 261 237 227 237 252 264 281 289 290 290 290 287 281 240 195 182 182 179 175 175 177 176 176
305 304 301 302 302 299 297 298 296 294 296 296 295 295 299 301 299 299 298 287 258 238 233 246 256 267 278 286 291 291 288 283 257 208 183 181 180 177 177 178 178 177
307 303 303 302 300 299 299 300 299 297 294 294 295 292 293 297 301 299 297 294 278 255 240 240 253 259 272 282 288 287 284 282 266 220 189 180 178 179 179 180 179 177
304 304 302 299 298 298 297 296 294 292 289 289 291 291 293 294 299 300 296 293 283 261 246 243 249 261 265 278 283 284 283 278 274 227 195 182 180 179 180 182 180 179
303 303 302 298 296 294 294 292 292 291 291 289 288 288 288 290 289 291 291 289 284 270 257 248 250 256 263 273 283 286 286 288 284 238 198 182 180 181 181 182 181 182
303 298 298 297 295 294 293 292 292 293 288 285 281 279 281 283 286 287 285 284 282 277 270 263 258 257 259 266 270 276 284 288 290 260 207 183 180 180 183 184 184 185
304 301 298 296 295 294 291 286 283 284 285 282 282 278 277 278 277 279 281 281 280 277 272 264 260 260 260 263 271 278 281 284 285 277 225 188 181 178 181 186 188 187
305 299 297 296 295 291 287 286 284 283 277 276 274 273 270 270 268 266 271 275 274 272 268 265 263 260 260 260 268 275 279 282 284 281 241 197 182 180 180 182 185 185
304 303 300 297 292 289 286 283 282 277 277 284 287 285 278 269 265 262 263 268 268 268 264 261 260 258 256 257 262 270 277 283 285 281 253 206 183 182 178 179 180 179
303 301 298 296 295 292 291 288 286 284 284 280 279 278 275 268 262 260 260 263 265 265 262 259 256 250 251 253 257 264 273 279 282 279 262 219 188 179 178 178 179 177
301 300 297 297 294 290 288 285 283 283 281 280 278 278 276 266 258 256 257 259 258 257 259 257 249 247 249 250 253 259 268 275 277 275 261 223 195 179 176 178 178 180
303 301 298 294 292 289 285 284 282 281 281 280 277 276 276 270 258 254 258 259 260 257 255 253 251 247 246 244 249 257 265 271 271 268 260 224 194 179 178 176 176 177
309 303 296 295 292 288 284 277 274 276 274 273 273 276 278 275 267 256 254 258 259 254 249 249 247 236 233 242 250 255 259 263 265 263 252 223 199 180 177 175 176 176
295 292 291 289 286 282 280 278 278 279 277 273 271 271 269 270 271 268 259 254 255 254 248 248 247 241 239 241 246 249 251 256 259 258 243 218 199 182 175 174 179 176
306 298 292 288 284 278 275 276 272 267 267 265 266 269 270 271 263 257 252 245 248 248 243 242 245 243 239 241 242 246 251 251 251 249 233 212 195 182 174 175 178 179
297 298 293 287 283 279 272 261 262 268 266 265 266 263 266 268 267 263 262 262 260 259 246 235 239 238 234 239 242 244 247 246 242 239 222 203 194 180 175 177 175 179